Location: Unspecified
(33.6682°S, 0.0000°E)
Time: 00:39:03
(UTC+00:00)

Courier 1B - Visible Passes

Search period start: 16 June 2019 00:00
Search period end: 26 June 2019 00:00
Orbit: 963 x 1209 km, 28.3° (Epoch: 14 June)

Date Brightness Start Highest point End Pass type
(mag) Time Alt. Az. Time Alt. Az. Time Alt. Az.
17 Jun 10.2 05:48:00 10° N 05:50:40 12° NNE 05:53:17 10° NE visible
19 Jun 9.8 05:51:38 10° NNW 05:56:48 22° NNE 06:01:46 10° ENE visible
20 Jun 10.0 04:58:47 10° N 05:03:09 17° NNE 05:07:24 10° ENE visible
21 Jun 10.1 04:06:32 10° N 04:09:30 13° NNE 04:12:24 10° NE visible
21 Jun 9.2 05:56:43 10° NW 06:02:59 33° NNE 06:08:57 10° E visible
22 Jun 9.4 05:03:19 10° NNW 05:09:18 27° NNE 05:15:00 10° ENE visible
23 Jun 9.6 04:12:50 18° N 04:15:36 22° NNE 04:20:52 10° ENE visible
23 Jun 8.7 06:02:24 10° NW 06:09:15 44° NNE 06:15:42 10° E visible
24 Jun 9.9 03:23:00 17° NE 03:23:00 17° NE 03:26:25 10° ENE visible
24 Jun 8.8 05:09:56 15° NW 05:15:30 39° NNE 05:21:55 10° E visible
25 Jun 9.0 04:19:59 30° N 04:21:45 33° NNE 04:28:03 10° E visible
25 Jun 8.4 06:08:25 10° WNW 06:15:33 53° N 06:22:16 10° E visible
